User: anonymous   Login
Location: Unspecified
(0.0000°N, 0.0000°E)
Time: 08:39:38
(UTC+00:00)
Language:

SUPERVIEW-1 03 - Orbit

View from above orbital plane
View from above orbital plane
View from above satellite
View from above satellite

Ground track
Ground track

The orbit data is extracted from the following two-line orbital elements,

1 43099U 18002A   19017.16217325  .00000233  00000-0  16347-4 0  9994
2 43099  97.5483  96.8969 0007867 106.4878 340.3993 15.14244086 56436
Epoch (UTC): 17 January 2019 03:53:31
Eccentricity: 0.0007867
inclination: 97.5483°
perigee height: 518 km
apogee height: 529 km
right ascension of ascending node: 96.8969°
argument of perigee: 106.4878°
revolutions per day: 15.14244086
mean anomaly at epoch: 340.3993°
orbit number at epoch: 5643

The dashed part of the orbit path shows where the satellite is in the earth's shadow,  

DLR